D-SAT (42794 NORAD) Tracking and Keplerian Element Data

This shows tracking and keplerian element data for the satellite.

Feedback or suggestion? Click here.




ElementValue
Catalog42794
NameD-SAT
Epoch Orbit29434
Epoch Day321.69421344
Epoch Year2022
RAAN319.1241
Inclination97.4571
Eccentricity0.0119555
Argument of Perigee292.2815
Mean Anonmoly66.5764
Mean Motion14.93458142
Decay Rate2.781E-05
L11 42794U 17036AF 22321.69421344 .00002781 00000-0 23514-3 0 9992
L22 42794 97.4571 319.1241 0119555 292.2815 66.5764 14.93458142294344



Live tracking and technical data element details for D-SAT (NORAD 42794). D-SAT can be tracked NOW for your location showing map with azimuth and elevation plus other details from your city location.







IsCatalogInMostPopularTable: catalog: 42794, numindb: 515
Update: records affected: 1



GetName: 42794 D-SAT

Hit Count: updated at: Fri, 02 Dec 2022 12:54:59 GMT